Temp
-2 -2 -2 -1 -1 -0 1 1 1 3 4 4 5 7 10 13 12 14 13 14 14 14 14 13 13 13 13
-2 -2 -2 -1 -1 0 1 1 2 3 3 4 5 7 10 12 12 13 13 14 14 14 13 13 13 13 12
-2 -2 -1 -0 0 1 1 1 1 3 3 3 7 6 9 11 12 13 13 14 14 13 13 13 13 12 12
-2 -2 -1 0 1 1 1 0 0 2 2 4 2 5 6 8 12 12 13 13 13 14 13 13 12 12 12
-2 -1 -0 -0 -0 1 1 0 0 1 1 3 3 5 4 8 11 12 13 14 12 12 13 13 12 12 12
-2 -1 -1 -1 -1 -0 0 0 1 0 -0 1 2 3 2 3 10 12 13 12 12 12 12 12 12 12 12
-2 -1 -1 -1 -1 -0 -0 0 0 -0 -1 1 2 1 1 4 8 12 11 11 12 12 11 11 11 11 11
-1 -1 -1 -1 -0 -0 -0 0 -0 0 -0 0 2 1 1 2 7 11 12 12 13 12 12 11 11 11 11
-1 -1 -0 -0 0 0 -0 0 0 -0 -0 -0 1 0 2 0 3 10 11 11 11 11 11 10 11 11 10
-1 -1 -1 -0 0 1 -0 -0 -0 0 0 -0 0 0 2 1 -0 7 10 10 11 11 10 10 11 9 9
-2 -2 -1 -0 -0 0 -0 -1 -1 -0 0 -0 0 0 -0 -0 -0 1 7 9 9 10 10 10 9 9 7
-2 -2 -1 -1 -0 -0 -0 -0 -0 -1 -0 1 0 -0 -0 -1 -1 -0 1 4 7 7 8 9 9 8 7
-2 -2 -1 -1 -1 -0 -1 -0 -0 -0 -0 0 1 -0 -1 -2 -2 -1 0 -1 1 2 2 3 3 3 2
-1 -0 -0 -1 -1 -1 -1 -0 -1 -2 -1 -0 -0 -1 -2 -3 -3 -3 -1 -2 -1 -1 -1 -1 0 0 -0
-1 -1 -1 -2 -2 -1 -1 -1 -1 -2 -3 -3 -2 -2 -3 -3 -3 -3 -3 -3 -2 -1 -1 -2 -3 -2 -2
-2 -1 -2 -2 -1 -1 -2 -1 -2 -2 -3 -3 -2 -2 -2 -4 -4 -4 -4 -4 -3 -2 -2 -2 -3 -2 -0
-1 -2 -2 -2 -1 -1 -2 -1 -2 -2 -2 -1 -1 -1 -2 -4 -5 -5 -4 -4 -4 -4 -4 -4 -4 -4 -3
Height
692 683 673 665 658 655 648 639 630 622 612 608 603 602 601 597 600 608 616 622 620 630 646 660 679 694 708
688 678 671 662 654 646 639 634 625 613 606 600 595 592 587 587 592 598 608 616 620 625 643 658 676 690 702
685 678 668 661 652 644 638 628 620 612 603 595 583 579 579 580 584 591 599 608 621 626 639 653 663 687 700
685 677 668 658 651 643 633 627 616 608 601 591 587 582 577 574 578 582 588 598 610 626 630 646 658 679 696
680 674 666 658 653 645 637 625 615 607 597 590 582 580 572 568 570 571 574 582 595 612 616 635 656 674 690
679 673 666 660 656 649 642 632 620 609 600 588 585 577 567 566 558 559 554 560 579 603 615 633 651 669 687
678 673 667 662 657 648 641 633 622 609 603 590 582 576 565 558 557 558 556 561 578 598 617 632 653 668 685
677 671 666 659 657 653 644 632 620 611 607 598 585 578 568 559 553 555 560 572 584 599 619 638 655 671 689
672 669 664 659 655 651 644 634 622 614 609 604 595 580 573 564 555 557 560 576 590 607 622 639 659 675 693
668 665 662 658 654 649 645 640 631 617 609 608 601 592 581 578 568 563 568 580 593 610 627 644 659 679 696
667 662 659 659 654 651 647 644 638 630 618 613 609 603 597 591 587 580 579 587 602 617 635 650 665 680 695
667 662 659 655 654 652 648 645 641 634 625 616 615 611 608 607 606 603 598 605 615 629 643 659 673 685 696
666 663 660 658 655 654 651 648 644 638 631 624 620 619 617 621 623 621 614 627 628 643 657 670 679 687 700
663 662 661 657 657 653 652 650 647 644 640 635 630 630 631 635 636 634 630 638 647 655 664 676 688 699 705
661 661 662 659 657 656 656 654 652 651 650 647 643 642 643 647 649 651 648 652 662 668 671 687 701 707 712
661 660 661 661 659 658 657 658 657 658 657 656 654 652 655 661 666 666 666 668 675 682 688 691 711 718 724
658 660 660 661 661 660 662 661 662 660 660 660 660 659 663 671 680 680 678 683 686 693 700 705 712 730 738
Wind_Speed
29 33 36 35 36 32 30 32 34 36 31 26 21 19 26 27 37 41 43 40 43 65 62 65 65 64 61
29 32 32 35 35 34 29 28 33 35 29 24 19 17 22 28 37 43 43 43 45 61 66 66 66 64 64
25 29 32 31 29 27 21 28 35 29 25 20 14 19 7 27 37 41 47 49 50 63 71 71 75 65 66
25 25 27 29 27 25 26 29 33 22 30 19 17 12 4 8 31 38 48 55 57 58 72 73 71 68 65
20 18 21 24 24 21 22 28 31 14 36 26 23 14 11 2 20 33 43 55 64 67 81 80 72 67 64
20 15 21 23 23 25 20 16 7 13 27 28 22 18 20 15 12 27 31 61 81 77 73 75 73 71 67
21 20 21 23 23 27 26 26 17 27 23 12 25 21 23 27 3 35 48 63 73 75 71 69 68 68 63
23 25 26 26 26 24 26 28 26 17 22 3 21 14 23 32 6 43 62 66 68 71 69 70 67 64 61
21 21 21 22 21 22 20 19 9 6 12 9 14 17 24 35 23 48 68 73 72 70 73 69 67 62 56
21 21 21 18 17 12 17 13 12 4 18 15 15 14 4 24 37 23 57 66 71 70 67 66 64 53 48
19 22 21 19 17 13 13 17 16 7 23 19 11 11 7 8 23 36 33 52 54 65 63 63 56 49 47
15 16 18 20 18 13 12 14 18 15 20 21 9 14 6 5 6 29 43 38 42 42 49 55 53 57 59
12 14 15 16 16 12 10 10 15 15 19 15 15 17 20 12 5 14 29 33 47 50 45 44 46 53 48
16 14 12 15 12 9 8 8 10 16 19 16 17 24 25 23 17 17 20 14 37 42 49 44 41 37 43
14 13 9 10 9 6 5 7 9 7 13 26 29 31 32 22 22 24 29 35 34 41 49 43 37 39 42
12 9 8 8 6 4 2 4 5 7 8 12 22 25 26 33 27 22 27 33 33 36 38 49 37 41 45
13 9 9 9 7 6 4 1 4 6 5 5 5 14 9 8 16 22 25 28 35 34 33 34 40 34 38
Wind_Direction
305 304 305 305 306 305 301 304 303 302 310 307 300 286 261 259 224 221 222 220 204 182 178 176 180 176 174
303 305 307 308 307 307 309 311 313 314 314 308 301 299 261 262 219 215 214 212 183 170 174 178 178 174 172
302 304 305 312 314 317 327 325 331 314 326 321 319 321 301 228 209 207 206 208 205 182 180 177 176 174 173
297 303 307 319 322 332 333 329 324 320 340 343 323 315 299 265 208 213 208 209 206 201 176 173 168 170 170
299 303 314 324 326 326 330 327 327 333 344 344 352 346 351 70 211 207 217 215 194 182 167 170 168 167 167
303 312 313 316 323 333 328 326 322 315 339 319 348 357 353 359 203 196 216 186 174 169 164 164 165 168 170
305 304 309 313 322 323 328 323 320 317 331 289 351 333 360 22 231 174 156 156 156 157 157 156 161 166 166
293 295 299 302 306 309 317 317 321 338 353 292 332 328 356 18 57 174 163 157 157 158 160 159 162 161 163
302 305 308 313 306 310 318 331 331 306 354 331 331 320 11 7 34 168 154 154 152 153 156 155 162 161 161
310 310 321 318 325 324 332 340 334 315 343 351 352 351 340 10 19 100 145 147 151 154 153 157 159 152 153
306 316 317 324 326 332 336 350 342 305 336 344 359 8 27 340 25 40 110 130 134 142 152 157 151 150 140
303 311 313 322 331 330 335 341 344 348 354 356 28 39 34 14 17 44 67 91 115 122 133 151 157 155 149
284 294 308 311 321 310 337 354 356 28 32 31 53 57 63 58 39 43 74 68 96 104 106 115 122 127 123
275 286 303 309 324 315 354 353 5 32 48 63 76 84 70 64 69 59 71 84 92 100 106 106 116 123 128
273 263 283 293 311 300 10 2 39 38 57 77 92 91 77 66 70 79 91 89 95 105 105 91 91 109 116
257 252 263 271 260 281 354 14 86 100 86 99 102 94 78 64 57 81 87 95 97 102 107 105 92 105 120
243 231 256 256 247 226 235 251 118 127 121 92 99 109 97 92 55 62 96 102 102 92 97 99 107 107 117